User: anonymous   Login
Location: Saint-Palais-sur-Mer
(45.6429°N, 1.0859°W)
Time: 01:00:54
(UTC+02:00)
Language:

YUBILEINY - Orbit

View from above orbital plane
View from above orbital plane
View from above satellite
View from above satellite

Ground track
Ground track

The orbit data is extracted from the following two-line orbital elements,

1 32953U 08025A   24115.79351329  .00000034  00000-0  17148-3 0  9990
2 32953  82.4984 122.7001 0018551 218.3144 141.6619 12.43139474722495
Epoch (UTC): 24 April 2024 19:02:39
Eccentricity: 0.0018551
inclination: 82.4984°
perigee height: 1479 km
apogee height: 1508 km
right ascension of ascending node: 122.7001°
argument of perigee: 218.3144°
revolutions per day: 12.43139474
mean anomaly at epoch: 141.6619°
orbit number at epoch: 72249

The dashed part of the orbit path shows where the satellite is in the earth's shadow,  

DLR